"TOA5","AWS1","CR1000","7964","CR1000.Std.14","CPU:AWS1_114.CR1","64363","TBL110"
"TIMESTAMP","RECORD","Wind_spd_WVc(1)","Wind_spd_WVc(2)","Air_Temp_Avg","Humidity_Avg","SW_upper_Wm2_Avg","Rain_Tot","Press_Avg","Issui_Tot","Depth_cm","SR50A_Raw","Quality","Ground_Temp_Avg(1)","Ground_Temp_Avg(2)","SW_lower_Wm2_Avg","Albedo_Avg","SWC_per(1)","SWC_per(2)","Period(1)","Period(2)"
"TS","RN","","","","","","","","","","","","","","","","","","",""
"","","WVc","WVc","Avg","Avg","Avg","Tot","Avg","Tot","Smp","Smp","Smp","Avg","Avg","Avg","Avg","Smp","Smp","Smp","Smp"
"2018-03-29 00:00:00",333853,0.295,174.3,4.703,54.6,0,0,868.0061,0,31.07,2.845,183,0.488,0.673,0,0,55.2,64.3,34.56,36.65
"2018-03-29 00:10:00",333854,0.309,174,4.884,52.74,0,0,868.004,0,31.35,2.84,192,0.493,0.678,0,0,55.15,64.3,34.55,36.65
"2018-03-29 00:20:00",333855,0.464,178.9,4.774,53.12,0,0,868.004,0,31.23,2.843,192,0.487,0.68,0,0,55.15,64.24,34.55,36.63
"2018-03-29 00:30:00",333856,0.505,182.6,4.618,53.23,0,0,867.9872,0,31.28,2.842,191,0.488,0.681,0,0,55.2,64.24,34.56,36.63
"2018-03-29 00:40:00",333857,0.373,181.8,4.695,52.66,0,0,867.9766,0,31.37,2.842,192,0.485,0.681,0,0,55.2,64.24,34.56,36.63
"2018-03-29 00:50:00",333858,0.097,179.9,4.951,51.01,0,0,867.9514,0,31.43,2.839,192,0.481,0.682,0,0,55.15,64.24,34.55,36.63
"2018-03-29 01:00:00",333859,0.114,177.3,4.958,51.47,0,0,867.9029,0,31.3,2.842,192,0.481,0.685,0,0,55.09,64.18,34.53,36.62
"2018-03-29 01:10:00",333860,0.254,172.7,4.693,52.96,0,0,867.7997,0,31.36,2.843,193,0.483,0.689,0,0,55.09,64.18,34.53,36.62
"2018-03-29 01:20:00",333861,0.289,183.4,5.132,50.97,0,0,867.7515,0,31.1,2.84,192,0.468,0.689,0.2426963,0,55.09,64.12,34.53,36.61
"2018-03-29 01:30:00",333862,0.228,188.9,5.127,51.51,0,0,867.759,0,31.37,2.842,192,0.456,0.685,0.09480325,0,55.03,64.12,34.52,36.61
"2018-03-29 01:40:00",333863,0.323,185.2,4.592,54.91,0,0,867.7496,0,31.05,2.845,192,0.444,0.69,0,0,54.97,64.12,34.51,36.61
"2018-03-29 01:50:00",333864,0.267,183.8,4.687,55.32,0,0,867.7539,0,31.2,2.845,192,0.441,0.692,0,0,54.92,64.05,34.49,36.59
"2018-03-29 02:00:00",333865,0.383,184,4.39,57.28,0,0,867.6653,0,31.3,2.844,191,0.445,0.699,0,0,54.92,64.05,34.49,36.59
"2018-03-29 02:10:00",333866,0.171,183.8,4.685,56.39,0,0,867.7585,0,31.44,2.84,191,0.445,0.704,0,0,54.86,63.63,34.48,36.5
"2018-03-29 02:20:00",333867,0.152,183.6,5.196,54.46,0,0,867.7615,0,30.95,2.842,192,0.452,0.709,0.1516852,0,54.86,63.63,34.48,36.5
"2018-03-29 02:30:00",333868,0.28,180.5,4.62,58,0,0,867.7783,0,31.27,2.843,187,0.425,0.695,0.0379213,0,54.86,63.57,34.48,36.49
"2018-03-29 02:40:00",333869,0.33,172.9,4.356,59.58,0,0,867.7653,0,31.28,2.846,191,0.431,0.693,0,0,54.86,63.57,34.48,36.49
"2018-03-29 02:50:00",333870,0.242,174.4,4.428,58.95,0,0,867.6448,0,31.32,2.843,193,0.446,0.711,0,0,54.86,63.51,34.48,36.47
"2018-03-29 03:00:00",333871,0.228,172.8,4.79,57.07,0,0,867.5488,0,31.52,2.841,192,0.453,0.712,0,0,54.8,63.51,34.46,36.47
"2018-03-29 03:10:00",333872,0.199,173.9,5.452,53.55,0,0,867.5273,0,30.69,2.843,190,0.433,0.708,0.4702241,0,54.8,63.45,34.46,36.46
"2018-03-29 03:20:00",333873,0.131,169.4,5.584,52.84,0,0,867.5225,0,31.34,2.839,185,0.431,0.689,0.1554773,0,54.8,63.45,34.46,36.46
"2018-03-29 03:30:00",333874,0.301,169.1,4.939,55.94,0,0,867.5131,0,31.2,2.845,192,0.429,0.689,0.00379213,0,54.75,63.45,34.45,36.46
"2018-03-29 03:40:00",333875,0.378,175,4.472,58.2,0,0,867.5156,0,31.26,2.844,191,0.448,0.699,0,0,54.75,63.39,34.45,36.44
"2018-03-29 03:50:00",333876,0.392,183.6,4.586,57.44,0,0,867.5128,0,31.14,2.847,179,0.451,0.697,0.02275278,0,54.75,63.45,34.45,36.46
"2018-03-29 04:00:00",333877,0.189,177.4,4.506,57.85,0,0,867.5233,0,31.18,2.843,187,0.438,0.691,0,0,54.69,63.39,34.44,36.44
"2018-03-29 04:10:00",333878,0.226,178.4,4.686,56.99,0,0,867.5206,0,31.18,2.843,183,0.432,0.689,0,0,54.69,63.39,34.44,36.44
"2018-03-29 04:20:00",333879,0.37,179.1,4.707,57.22,0,0,867.5299,0,31.09,2.847,192,0.442,0.705,0,0,54.69,63.32,34.44,36.43
"2018-03-29 04:30:00",333880,0.366,172.4,4.234,60.2,0,0,867.5114,0,31.21,2.846,192,0.431,0.703,0,0,54.63,63.32,34.42,36.43
"2018-03-29 04:40:00",333881,0.038,179.7,4.472,59.65,0,0,867.3184,0,31.34,2.841,187,0.442,0.715,0.007584261,0,54.63,63.32,34.42,36.43
"2018-03-29 04:50:00",333882,0.348,185.9,4.995,57.9,0,0,867.2812,0,31.2,2.845,193,0.425,0.718,0.3071626,0,54.69,63.26,34.44,36.42
"2018-03-29 05:00:00",333883,0.311,185,4.42,60.54,0,0,867.285,0,31.07,2.845,188,0.436,0.722,0.04929769,0,54.69,63.26,34.44,36.42
"2018-03-29 05:10:00",333884,0.465,183.6,4.212,61.98,0,0,867.3575,0,31.31,2.847,187,0.426,0.723,0,0,54.63,63.2,34.42,36.4
"2018-03-29 05:20:00",333885,0.513,175.5,3.922,63.98,0,0,867.4503,0,31.27,2.847,192,0.432,0.72,0,0,54.63,63.2,34.42,36.4
"2018-03-29 05:30:00",333886,0.245,175.8,4.173,62.88,0,0,867.3991,0,31.09,2.847,188,0.445,0.723,0,0,54.63,63.2,34.42,36.4
"2018-03-29 05:40:00",333887,0.148,175.7,4.328,62.46,0,0,867.5245,0,31.1,2.848,192,0.422,0.723,0.2123593,0,54.58,63.14,34.41,36.39
"2018-03-29 05:50:00",333888,0.548,185.1,3.992,64.25,1.872093,0,867.558,0,31.19,2.846,192,0.425,0.724,1.414465,0.633,54.58,63.14,34.41,36.39
"2018-03-29 06:00:00",333889,0.543,185.1,3.936,64.68,7.901335,0,867.5583,0,31.41,2.846,192,0.426,0.71,3.678366,0.472,54.58,63.08,34.41,36.38
"2018-03-29 06:10:00",333890,0.719,191.9,3.987,65.07,14.0761,0,867.5497,0,31.23,2.847,192,0.454,0.71,5.836089,0.416,54.52,63.08,34.4,36.38
"2018-03-29 06:20:00",333891,0.535,189.6,4.118,64.68,20.21153,0,867.5466,0,31.04,2.846,178,0.494,0.694,8.126535,0.402,54.52,63.08,34.4,36.38
"2018-03-29 06:30:00",333892,0.344,189.2,4.366,63.82,33.7724,0,867.5427,0,31.35,2.842,192,0.501,0.684,13.38243,0.396,54.46,63.02,34.38,36.36
"2018-03-29 06:40:00",333893,0.486,186.3,4.551,63.87,52.04498,0,867.5418,0,31.25,2.845,192,0.475,0.681,20.49646,0.395,54.52,63.02,34.4,36.36
"2018-03-29 06:50:00",333894,0.441,175.9,4.673,64.03,63.2854,0,867.5264,0,31.34,2.841,191,0.464,0.681,24.97876,0.395,54.52,62.96,34.4,36.35
"2018-03-29 07:00:00",333895,0.234,167.8,5.122,63.02,67.47401,0,867.5085,0,31.4,2.838,193,0.432,0.692,28.61542,0.424,54.46,62.96,34.38,36.35
"2018-03-29 07:10:00",333896,0.233,167.5,5.814,61.42,86.45452,0,867.5023,0,31.26,2.836,188,0.422,0.776,35.35782,0.41,54.46,63.02,34.38,36.36
"2018-03-29 07:20:00",333897,0.144,167.6,6.362,59.26,93.55575,0,867.4993,0,31.38,2.831,190,0.417,0.804,38.23156,0.409,54.46,62.96,34.38,36.35
"2018-03-29 07:30:00",333898,0.002,167.6,7.393,57.01,107.4873,0,867.4987,0,31.11,2.829,179,0.423,0.742,42.36834,0.394,54.41,62.96,34.37,36.35
"2018-03-29 07:40:00",333899,0.244,156.7,7.576,58.18,148.6072,0,867.4985,0,31.47,2.826,184,0.423,0.706,47.2729,0.324,54.41,62.9,34.37,36.34
"2018-03-29 07:50:00",333900,0.117,122.7,8.13,53.38,266.2757,0,867.4985,0,31.35,2.822,190,0.43,0.659,58.80191,0.221,54.41,62.9,34.37,36.34
"2018-03-29 08:00:00",333901,0.206,67.16,8.78,48.4,266.2533,0,867.4982,0,31.36,2.82,186,0.418,0.663,67.37919,0.255,54.41,62.84,34.37,36.32
"2018-03-29 08:10:00",333902,0.688,142.5,9.26,47.23,199.9083,0,867.4288,0,31.37,2.819,190,0.378,0.708,69.52422,0.349,54.41,62.84,34.37,36.32
"2018-03-29 08:20:00",333903,0.594,148.1,9.42,44.64,287.2549,0,867.1776,0,30.96,2.821,173,0.407,0.757,75.37574,0.269,54.41,62.84,34.37,36.32
"2018-03-29 08:30:00",333904,0.631,134.4,9.92,41.82,362.4,0,867.1566,0,31.04,2.817,180,0.366,0.703,87.59689,0.247,54.35,62.78,34.36,36.31
"2018-03-29 08:40:00",333905,0.78,130.4,10.5,39.64,338.2394,0,867.1525,0,30.99,2.815,174,0.311,0.654,92.04739,0.284,54.41,62.78,34.37,36.31
"2018-03-29 08:50:00",333906,0.432,83.5,10.87,37.77,332.1301,0,867.152,0,30.79,2.817,187,0.318,0.665,89.47725,0.309,54.35,62.78,34.36,36.31
"2018-03-29 09:00:00",333907,0.369,17.38,10.52,38.79,167.9386,0,867.1771,0,30.72,2.819,180,0.342,0.714,82.90072,0.495,54.29,62.72,34.34,36.3
"2018-03-29 09:10:00",333908,0.616,341.7,10.3,40.47,188.8703,0,867.2375,0,30.73,2.821,177,0.339,0.717,82.94571,0.442,54.35,62.72,34.36,36.3
"2018-03-29 09:20:00",333909,0.474,336.2,10.18,44,185.9095,0,867.33,0,30.84,2.82,182,0.343,0.703,84.75652,0.456,54.29,62.66,34.34,36.28
"2018-03-29 09:30:00",333910,0.426,1.887,10.38,44.14,257.2499,0,867.3666,0,30.82,2.818,180,0.361,0.682,88.16265,0.359,54.29,62.66,34.34,36.28
"2018-03-29 09:40:00",333911,0.348,324.6,10.35,44.06,319.5486,0,867.3264,0,31.7,2.809,193,0.354,0.657,93.80916,0.308,54.29,62.66,34.34,36.28
"2018-03-29 09:50:00",333912,0.529,331.2,10.71,40.84,239.2054,0,867.1857,0,30.84,2.817,189,0.328,0.634,97.62854,0.412,54.29,62.6,34.34,36.27
"2018-03-29 10:00:00",333913,0.495,314.8,10.82,42.33,268.7191,0,867.131,0,30.28,2.821,185,0.307,0.633,105.3749,0.397,54.29,62.6,34.34,36.27
"2018-03-29 10:10:00",333914,1.018,312.4,10.71,42.36,478.8271,0,867.3242,0,30.64,2.819,186,0.297,0.63,117.3217,0.282,54.29,62.6,34.34,36.27
"2018-03-29 10:20:00",333915,0.688,314.4,10.69,42.21,628.9326,0,867.3377,0,30.71,2.817,184,0.303,0.623,129.3828,0.235,54.24,62.6,34.33,36.27
"2018-03-29 10:30:00",333916,0.776,330.9,11.03,40.75,237.8818,0,867.0984,0,30.32,2.82,216,0.276,0.615,143.9005,0.605,54.24,62.54,34.33,36.25
"2018-03-29 10:40:00",333917,0.635,311.2,11.24,40.39,242.5715,0,866.8243,0,29.92,2.823,187,0.259,0.6,165.8379,0.683,54.24,62.54,34.33,36.25
"2018-03-29 10:50:00",333918,0.729,357.5,11.64,39.41,563.5226,0,866.7547,0,30.15,2.819,188,0.216,0.586,191.1877,0.372,54.24,62.6,34.33,36.27
"2018-03-29 11:00:00",333919,0.825,349.3,11.95,38.97,811.6028,0,866.7616,0,30.36,2.815,181,0.21,0.587,209.7351,0.258,54.24,62.54,34.33,36.25
"2018-03-29 11:10:00",333920,0.725,324.7,11.97,39.49,818.7802,0,866.7906,0,29.88,2.82,183,0.221,0.585,218.5842,0.267,54.24,62.54,34.33,36.25
"2018-03-29 11:20:00",333921,0.845,322.4,12.09,39.04,847.7134,0,866.5906,0,29.41,2.824,182,0.157,0.569,236.7703,0.279,54.24,62.54,34.33,36.25
"2018-03-29 11:30:00",333922,0.777,333.9,12.59,37.23,858.2081,0,866.5147,0,28.99,2.825,182,0.164,0.558,251.8838,0.293,54.24,62.48,34.33,36.24
"2018-03-29 11:40:00",333923,0.761,304,12.58,36.81,863.8317,0,866.3442,0,30.37,2.813,185,0.163,0.543,264.0945,0.306,54.18,62.54,34.32,36.25
"2018-03-29 11:50:00",333924,0.651,304.2,12.9,36.02,869.6766,0,866.3041,0,29.68,2.818,200,0.159,0.508,272.2933,0.313,54.18,62.48,34.32,36.24
"2018-03-29 12:00:00",333925,0.995,313.1,12.81,34.41,875.7475,0,866.2936,0,29.28,2.82,193,0.156,0.472,279.5317,0.319,54.18,62.48,34.32,36.24
"2018-03-29 12:10:00",333926,0.5,316.1,13.36,33.94,874.8351,0,866.0873,0,29.77,2.814,178,0.161,0.495,281.5808,0.322,54.18,62.48,34.32,36.24
"2018-03-29 12:20:00",333927,0.519,291.9,13.72,32.7,872.3087,0,866.001,0,28.9,2.821,195,0.159,0.493,282.4748,0.324,54.18,62.48,34.32,36.24
"2018-03-29 12:30:00",333928,0.208,291.4,14.19,32.12,871.1143,0,865.7989,0,29.67,2.809,193,0.159,0.474,280.2094,0.322,54.18,62.48,34.32,36.24
"2018-03-29 12:40:00",333929,0.6,322.9,14.3,30.04,856.7814,0,865.7968,0,29.71,2.812,187,0.154,0.47,275.8643,0.322,54.18,62.48,34.32,36.24
"2018-03-29 12:50:00",333930,0.596,300.5,13.78,30.24,842.6923,0,865.6094,0,29.33,2.817,183,0.124,0.43,272.3867,0.323,54.18,62.48,34.32,36.24
"2018-03-29 13:00:00",333931,0.513,302.1,13.9,28.74,827.334,0,865.5441,0,28.66,2.821,188,0.085,0.421,266.5831,0.322,54.24,62.42,34.33,36.23
"2018-03-29 13:10:00",333932,0.621,315.9,13.98,29.14,811.3353,0,865.4199,0,28.29,2.825,190,0.077,0.423,258.999,0.319,54.41,62.48,34.37,36.24
"2018-03-29 13:20:00",333933,0.961,296.6,13.89,30.16,783.7835,0,865.2999,0,27.83,2.829,186,0.076,0.42,248.2688,0.317,54.69,62.54,34.44,36.25
"2018-03-29 13:30:00",333934,0.702,271.2,13.73,30.29,755.0812,0,865.2662,0,28.23,2.829,186,0.077,0.421,231.3095,0.306,54.86,62.66,34.48,36.28
"2018-03-29 13:40:00",333935,0.673,285.8,13.47,30.98,723.5074,0,865.2009,0,27.95,2.83,183,0.075,0.42,205.3357,0.284,55.03,62.78,34.52,36.31
"2018-03-29 13:50:00",333936,0.936,272.7,13.61,31.43,671.1986,0,865.0915,0,28.03,2.832,170,0.074,0.417,170.358,0.254,55.15,63.08,34.55,36.38
"2018-03-29 14:00:00",333937,0.848,331.2,13.35,31.62,640.9213,0,865.041,0,28.07,2.828,183,0.074,0.415,140.7374,0.219,55.26,63.39,34.57,36.44
"2018-03-29 14:10:00",333938,0.65,265.6,13.36,31.21,467.0069,0,865.041,0,28.59,2.828,182,0.076,0.415,113.7548,0.247,55.37,63.63,34.6,36.5
"2018-03-29 14:20:00",333939,0.833,278.1,13.05,31.5,304.7969,0,865.041,0,27.53,2.837,178,0.091,0.431,93.99429,0.309,55.49,63.99,34.63,36.58
"2018-03-29 14:30:00",333940,0.446,276.3,13.27,31.75,259.2381,0,865.062,0,27.19,2.839,187,0.111,0.471,86.66116,0.335,55.55,64.3,34.64,36.65
"2018-03-29 14:40:00",333941,0.859,269,13.22,32.56,218.6527,0,865.1019,0,27.45,2.839,187,0.145,0.469,74.57075,0.341,55.6,64.54,34.65,36.7
"2018-03-29 14:50:00",333942,1.149,270.7,12.75,32.34,264.5585,0,865.2746,0,27.93,2.836,181,0.127,0.499,86.78376,0.328,55.6,65.09,34.65,36.82
"2018-03-29 15:00:00",333943,1.111,275.2,12.59,33.22,235.1984,0,865.2936,0,28.29,2.834,185,0.104,0.504,76.15654,0.324,55.66,65.65,34.67,36.95
"2018-03-29 15:10:00",333944,1.088,275.8,12.78,34.28,202.9256,0,865.2936,0,27.37,2.843,188,0.088,0.505,65.21458,0.321,55.66,66.2,34.67,37.07
"2018-03-29 15:20:00",333945,1.262,275.5,12.05,37.11,209.3348,0,865.4599,0,27.94,2.838,186,0.122,0.51,66.43205,0.317,55.66,66.76,34.67,37.19
"2018-03-29 15:30:00",333946,0.724,252.7,12.17,37.83,217.2387,0,865.5462,0,27.49,2.842,199,0.128,0.516,68.19555,0.314,55.77,66.76,34.7,37.19
"2018-03-29 15:40:00",333947,1.033,333.3,12.33,37.75,175.2182,0,865.7,0,27.01,2.849,178,0.129,0.517,54.03607,0.308,55.83,66.82,34.71,37.2
"2018-03-29 15:50:00",333948,0.801,299.5,11.73,40.67,173.7842,0,865.8109,0,27.19,2.847,182,0.137,0.524,54.05255,0.311,55.83,66.82,34.71,37.2
"2018-03-29 16:00:00",333949,0.527,297.3,11.64,42.24,199.0623,0,866.0491,0,27.04,2.85,181,0.15,0.53,61.91283,0.311,55.89,66.76,34.72,37.19
"2018-03-29 16:10:00",333950,0.883,287.6,11.33,44.12,180.1021,0,866.097,0,26.6,2.856,186,0.166,0.539,55.87079,0.31,55.83,66.82,34.71,37.2
"2018-03-29 16:20:00",333951,1.086,294,10.98,46.2,126.282,0,866.2843,0,26.57,2.858,178,0.188,0.565,39.31967,0.311,55.89,66.82,34.72,37.2
"2018-03-29 16:30:00",333952,1.452,322,10.78,47.74,82.8932,0,866.3492,0,26.47,2.86,182,0.202,0.605,25.82181,0.312,55.89,66.76,34.72,37.19
"2018-03-29 16:40:00",333953,1.26,298.6,10.36,49.93,64.35439,0,866.366,0,26.82,2.859,181,0.203,0.61,20.00875,0.31,55.89,66.76,34.72,37.19
"2018-03-29 16:50:00",333954,1.139,302.3,10.03,52.19,41.07932,0,866.3777,0,26.81,2.86,191,0.203,0.558,12.5737,0.304,55.89,66.82,34.72,37.2
"2018-03-29 17:00:00",333955,0.647,303.8,9.98,52.85,30.48721,0,866.5119,0,26.71,2.861,189,0.204,0.549,8.973633,0.285,55.89,66.76,34.72,37.19
"2018-03-29 17:10:00",333956,1.246,301.9,9.81,54.24,7.506842,0,866.6412,0,26.76,2.862,173,0.234,0.548,1.561291,0.185,55.89,66.82,34.72,37.2
"2018-03-29 17:20:00",333957,0.719,309.9,9.62,55.84,4.091425,0,866.7214,0,26.48,2.865,178,0.254,0.548,0.280426,0.064,55.95,66.82,34.74,37.2
"2018-03-29 17:30:00",333958,0.686,293.8,9.41,57.26,8.406877,0,866.8862,0,26.78,2.864,178,0.27,0.549,1.860665,0.2,55.89,66.82,34.72,37.2
"2018-03-29 17:40:00",333959,0.532,279.2,9.15,59.25,22.90569,0,866.8864,0,26.49,2.868,185,0.282,0.549,6.35506,0.276,55.95,66.76,34.74,37.19
"2018-03-29 17:50:00",333960,0.416,258,8.89,60.84,14.80538,0,866.9011,0,26.47,2.869,190,0.285,0.549,3.872911,0.26,55.89,66.82,34.72,37.2
"2018-03-29 18:00:00",333961,0.924,344.6,8.87,61.13,5.793238,0,866.9138,0,26.27,2.871,190,0.287,0.549,1.068651,0.14,55.89,66.76,34.72,37.19
"2018-03-29 18:10:00",333962,0.691,314.6,8.78,61.7,1.041525,0,866.9158,0,26.62,2.868,198,0.287,0.549,0,0,55.89,66.82,34.72,37.2
"2018-03-29 18:20:00",333963,0.717,289.9,8.68,62.36,0.03144227,0,866.9769,0,26.33,2.872,190,0.288,0.553,0,0,55.89,66.82,34.72,37.2
"2018-03-29 18:30:00",333964,0.785,277.4,8.46,63.47,0,0,867.1117,0,26.09,2.875,189,0.288,0.555,0,0,55.83,66.82,34.71,37.2
"2018-03-29 18:40:00",333965,1.481,302.5,8.45,63.56,0,0,867.1517,0,26.29,2.873,188,0.288,0.554,0,0,55.83,66.82,34.71,37.2
"2018-03-29 18:50:00",333966,1.349,295.1,8.3,64.24,0,0,867.217,0,26.58,2.871,175,0.287,0.551,0,0,55.77,66.76,34.7,37.19
"2018-03-29 19:00:00",333967,1.13,294.4,8.18,64.93,0,0,867.3308,0,26.62,2.872,190,0.291,0.553,0,0,55.83,66.82,34.71,37.2
"2018-03-29 19:10:00",333968,1.134,314,8.12,65.28,0,0,867.4023,0,26.16,2.876,187,0.291,0.554,0,0,55.83,66.82,34.71,37.2
"2018-03-29 19:20:00",333969,0.738,279.2,7.984,66.21,0,0,867.4066,0,26.35,2.875,184,0.29,0.571,0,0,55.77,66.82,34.7,37.2
"2018-03-29 19:30:00",333970,1.321,295.1,7.855,67.2,0,0,867.5709,0,26.31,2.876,194,0.302,0.603,0,0,55.77,66.76,34.7,37.19
"2018-03-29 19:40:00",333971,0.45,253.1,7.578,68.77,0,0,867.632,0,26.62,2.874,195,0.306,0.626,0,0,55.77,66.76,34.7,37.19
"2018-03-29 19:50:00",333972,0.561,211.1,7.517,69.46,0,0,867.6593,0,26.19,2.879,186,0.324,0.67,0,0,55.77,66.82,34.7,37.2
"2018-03-29 20:00:00",333973,0.793,190.1,7.434,70.17,0,0,867.6614,0,26.18,2.879,182,0.327,0.694,0,0,55.72,66.76,34.68,37.19
"2018-03-29 20:10:00",333974,0.505,184.5,7.376,70.61,0,0,867.6277,0,26.27,2.879,187,0.327,0.713,0,0,55.72,66.76,34.68,37.19
"2018-03-29 20:20:00",333975,0.509,188.8,7.191,71.35,0,0,867.6635,0,26.51,2.877,182,0.348,0.716,0,0,55.77,66.7,34.7,37.18
"2018-03-29 20:30:00",333976,0.501,211.1,7.249,70.9,0,0,867.7372,0,26.32,2.88,195,0.332,0.714,0,0,55.72,66.76,34.68,37.19
"2018-03-29 20:40:00",333977,0.819,278,7.115,71.41,0,0,867.8973,0,26.5,2.878,197,0.335,0.711,0,0,55.72,66.76,34.68,37.19
"2018-03-29 20:50:00",333978,1.028,293,7.08,72.11,0,0,867.99,0,26.49,2.879,196,0.336,0.713,0,0,55.66,66.7,34.67,37.18
"2018-03-29 21:00:00",333979,0.749,282.2,6.893,73.82,0,0,867.9374,0,26.58,2.879,188,0.334,0.713,0,0,55.66,66.76,34.67,37.19
"2018-03-29 21:10:00",333980,0.863,238.1,6.612,75.5,0,0,867.8552,0,26.45,2.881,183,0.332,0.674,0,0,55.66,66.76,34.67,37.19
"2018-03-29 21:20:00",333981,0.924,288.8,6.523,76.23,0,0,867.6761,0,26.47,2.881,187,0.332,0.64,0,0,55.66,66.7,34.67,37.18
"2018-03-29 21:30:00",333982,1.2,293.1,6.364,77.03,0,0,867.691,0,26.53,2.882,189,0.329,0.622,0,0,55.66,66.57,34.67,37.15
"2018-03-29 21:40:00",333983,0.855,297.7,6.131,78.67,0,0,867.7394,0,26.43,2.885,180,0.331,0.618,0,0,55.66,66.2,34.67,37.07
"2018-03-29 21:50:00",333984,0.193,251.8,5.749,80.4,0,0,867.6938,0,26.38,2.887,188,0.333,0.6,0,0,55.66,66.08,34.67,37.04
"2018-03-29 22:00:00",333985,0.009,139.4,5.485,82.1,0,0,867.6917,0,26.3,2.888,188,0.343,0.592,0,0,55.66,65.96,34.67,37.01
"2018-03-29 22:10:00",333986,0.266,281.2,5.288,87.6,0,0,867.7098,0,26.43,2.889,194,0.338,0.594,0,0,55.6,65.89,34.65,37
"2018-03-29 22:20:00",333987,0.44,260,5.008,95.8,0,0,867.7281,0,26.4,2.89,188,0.337,0.592,0,0,55.6,65.83,34.65,36.99
"2018-03-29 22:30:00",333988,0.576,284.1,4.977,99.8,0,0,867.8256,0,26.27,2.891,188,0.344,0.592,0,0,55.6,65.77,34.65,36.97
"2018-03-29 22:40:00",333989,0.576,304.9,4.855,100,0,0,867.7853,0,26.28,2.892,172,0.345,0.592,0,0,55.6,65.59,34.65,36.93
"2018-03-29 22:50:00",333990,0.239,240.3,4.624,100,0,0,867.9227,0,26.47,2.892,183,0.355,0.592,0,0,55.55,65.52,34.64,36.92
"2018-03-29 23:00:00",333991,0.204,290.8,4.23,100,0,0,868.0012,0,26.45,2.894,183,0.366,0.592,0,0,55.55,65.4,34.64,36.89
"2018-03-29 23:10:00",333992,0.52,293.6,3.858,100,0,0,867.9971,0,26.43,2.896,182,0.37,0.592,0,0,55.55,65.34,34.64,36.88
"2018-03-29 23:20:00",333993,0.244,260.7,3.63,100,0,0,867.9955,0,26.49,2.897,190,0.376,0.592,0,0,55.55,65.28,34.64,36.87
"2018-03-29 23:30:00",333994,0.453,259.4,3.315,100,0,0,867.9977,0,26.38,2.899,178,0.376,0.592,0,0,55.55,65.28,34.64,36.87
"2018-03-29 23:40:00",333995,0.402,247.5,3.207,100,0,0,867.9913,0,26.39,2.9,185,0.373,0.592,0,0,55.49,65.16,34.63,36.84
"2018-03-29 23:50:00",333996,0.265,124.8,3.052,100,0,0,867.9872,0,26.27,2.901,178,0.378,0.593,0,0,55.55,65.09,34.64,36.82
